Tracking 19846 objects as of 18-Sep-2019
HD Live streaming from Space Station
objects crossing your sky now

FENGYUN 1C DEB

Track FENGYUN 1C DEB now!
10-day predictions


NORAD ID: 36733
Int'l Code: 1999-025EBF
Perigee: 814.1 km
Apogee: 1,038.1 km
Inclination: 99.2 °
Period: 103.4 minutes
Semi major axis: 7297 km
RCS: 0.0043 m2 (small)
Launch date: May 10, 1999
Source: People's Republic of China (PRC)
Launch site: Taiyaun Space Center, China (TSC)

Note: This is SATELLITE DEBRIS
aabbcc
Your satellite tracking list
Your tracking list is empty




NASA's NSSDC Master Catalog

Two Line Element Set (TLE):
1 36733U 99025EBF 19258.26160505  .00000670  00000-0  50217-3 0  9998
2 36733  99.2025 193.5634 0153446 234.6333 124.0407 13.92760422507443
Source of the keplerian elements: AFSPC